Location: Goettingen
(51.5300°N, 9.9433°E)
Time: 07:30:02
(UTC+02:00)

ISS - Pass Details

Date: 08 May 2021
Orbit: 417 x 422 km, 51.6° (Epoch: 18 May)

Event Time Altitude Azimuth Distance (km) Brightness Sun altitude
Exits shadow 04:22:21 - 272° (W) 1,704 -1.1 -10.3°
Reaches altitude 10° 04:22:50 10° 272° (W) 1,505 -1.3 -10.3°
Maximum altitude 04:26:13 86° 2° (N) 428 -3.7 -9.9°
Drops below altitude 10° 04:29:36 10° 91° (E) 1,507 -0.2 -9.5°
Sets 04:31:42 0° 92° (E) 2,372 0.8 -9.3°
